Tracking 29892 objects as of 21-Nov-2024
HD Live streaming from Space Station
objects crossing your sky now

SL-12 R/B(2)

Track SL-12 R/B(2) now!


NORAD ID: 23845
Int'l Code: 1996-021D
Perigee: 11,677.0 km
Apogee: 36,246.2 km
Inclination: 6.2 °
Period: 876.2 minutes
Semi major axis: 30332 km
RCS: 34.7717 m2 (large)
Launch date: April 8, 1996
Source: Commonwealth of Independent States (former USSR) (CIS)
Launch site: TYURATAM MISSILE AND SPACE COMPLEX (TTMTR)

Note: This is a ROCKET BODY
Your satellite tracking list
Your tracking list is empty




NASA's NSSDC Master Catalog

Two Line Element Set (TLE):
1 23845U 96021D   24325.92112233 -.00000090  00000-0  00000+0 0  9998
2 23845   6.1919 272.8827 4049977 198.9743 206.8623  1.64338202171811
Source of the keplerian elements: AFSPC